TimeCET,TemperatureF,Dew PointF,Humidity,Sea Level PressureIn,VisibilityMPH,Wind Direction,Wind SpeedMPH,Gust SpeedMPH,PrecipitationIn,Events,Conditions,WindDirDegrees,DateUTC
1:00 AM,55,38,41,30.14,,NW,6.9,,,,,320,2012-12-05 00:00:00
5:00 AM,55.4,41.0,58,30.09,-9999.0,NW,4.6,-,N/A,,Clear,310,2012-12-05 04:00:00
5:30 AM,55.4,41.0,58,30.09,-9999.0,NW,5.8,-,N/A,,Clear,310,2012-12-05 04:30:00
6:00 AM,55.4,39.2,54,30.06,-9999.0,NW,6.9,-,N/A,,Clear,320,2012-12-05 05:00:00
6:30 AM,59.0,39.2,48,30.06,-9999.0,NW,9.2,-,N/A,,Clear,310,2012-12-05 05:30:00
7:00 AM,57,37,35,30.09,22,WNW,9.2,,,,,300,2012-12-05 06:00:00
7:00 AM,59.0,37.4,45,30.09,-9999.0,WNW,9.2,-,N/A,,Clear,300,2012-12-05 06:00:00
8:00 AM,59.0,37.4,45,30.06,-9999.0,WNW,12.7,-,N/A,,Clear,300,2012-12-05 07:00:00
8:30 AM,57.2,37.4,48,30.09,6.2,WNW,12.7,-,N/A,,Partly Cloudy,290,2012-12-05 07:30:00
9:00 AM,59.0,37.4,45,30.09,6.2,NW,13.8,-,N/A,,Partly Cloudy,320,2012-12-05 08:00:00
9:30 AM,60.8,37.4,42,30.09,6.2,NW,10.4,-,N/A,,Partly Cloudy,310,2012-12-05 08:30:00
10:00 AM,60.8,35.6,39,30.09,6.2,West,6.9,-,N/A,,Partly Cloudy,280,2012-12-05 09:00:00
10:30 AM,62.6,41.0,45,30.09,6.2,WSW,9.2,-,N/A,,Partly Cloudy,250,2012-12-05 09:30:00
11:00 AM,64.4,39.2,40,30.09,6.2,West,8.1,-,N/A,,Partly Cloudy,260,2012-12-05 10:00:00
11:30 AM,62.6,44.6,52,30.12,6.2,South,6.9,-,N/A,,Partly Cloudy,190,2012-12-05 10:30:00
12:00 PM,64.4,50.0,59,30.12,6.2,SSW,8.1,-,N/A,,Partly Cloudy,200,2012-12-05 11:00:00
12:30 PM,62.6,50.0,63,30.09,6.2,SSW,9.2,-,N/A,,Partly Cloudy,210,2012-12-05 11:30:00
1:00 PM,62,50,55,30.10,22,SSW,8.1,,,,Scattered Clouds,200,2012-12-05 12:00:00
1:00 PM,62.6,50.0,63,30.09,6.2,SSW,6.9,-,N/A,,Partly Cloudy,200,2012-12-05 12:00:00
1:30 PM,64.4,50.0,59,30.09,6.2,SSW,8.1,-,N/A,,Partly Cloudy,200,2012-12-05 12:30:00
2:00 PM,64.4,48.2,56,30.06,6.2,Variable,2.3,-,N/A,,Partly Cloudy,0,2012-12-05 13:00:00
4:00 PM,62.6,48.2,59,30.06,-9999.0,Variable,2.3,-,N/A,,Clear,0,2012-12-05 15:00:00
4:30 PM,62.6,48.2,59,30.06,-9999.0,Variable,1.2,-,N/A,,Clear,0,2012-12-05 15:30:00
5:00 PM,62.6,48.2,59,30.06,-9999.0,East,8.1,-,N/A,,Clear,90,2012-12-05 16:00:00
5:30 PM,60.8,48.2,63,30.06,-9999.0,ENE,6.9,-,N/A,,Clear,70,2012-12-05 16:30:00
6:00 PM,59.0,48.2,67,30.06,-9999.0,ENE,8.1,-,N/A,,Clear,70,2012-12-05 17:00:00
6:30 PM,59.0,46.4,63,30.09,-9999.0,NE,6.9,-,N/A,,Clear,40,2012-12-05 17:30:00
7:00 PM,57,44,53,30.11,16,NE,8.1,,,,Partly Cloudy,40,2012-12-05 18:00:00
7:00 PM,59.0,46.4,63,30.09,-9999.0,NE,8.1,-,N/A,,Clear,40,2012-12-05 18:00:00
7:30 PM,57.2,46.4,67,30.09,-9999.0,ENE,8.1,-,N/A,,Clear,70,2012-12-05 18:30:00
8:00 PM,57.2,46.4,67,30.12,-9999.0,NNE,4.6,-,N/A,,Clear,20,2012-12-05 19:00:00
8:30 PM,57.2,46.4,67,30.12,-9999.0,North,6.9,-,N/A,,Clear,10,2012-12-05 19:30:00
9:00 PM,57.2,46.4,67,30.12,-9999.0,North,5.8,-,N/A,,Clear,10,2012-12-05 20:00:00
9:30 PM,55.4,46.4,72,30.12,-9999.0,North,6.9,-,N/A,,Clear,10,2012-12-05 20:30:00
10:00 PM,55.4,46.4,72,30.12,-9999.0,North,8.1,-,N/A,,Clear,10,2012-12-05 21:00:00
10:30 PM,53.6,44.6,72,30.12,-9999.0,NNW,6.9,-,N/A,,Clear,340,2012-12-05 21:30:00
11:00 PM,53.6,44.6,72,30.12,-9999.0,North,4.6,-,N/A,,Clear,350,2012-12-05 22:00:00
11:30 PM,53.6,42.8,67,30.12,-9999.0,North,6.9,-,N/A,,Clear,350,2012-12-05 22:30:00